Valdosta, GA

12:15 PM EDT on September 24, 2017 (GMT -0400)
Moody Air Force Base

Weather History for KVAD - February, 2014

Change the Weather History Date:

Thursday, February 20, 2014

  Actual Average Record
Temperature  
Mean Temperature 66 °F -  
Max Temperature 82 °F 65 °F 82 °F (2014)
Min Temperature 49 °F 45 °F 22 °F (2015)
Growing Degree Days 16 (Base 50)    
Moisture  
Dew Point 55 °F    
Average Humidity 93    
Maximum Humidity 100    
Minimum Humidity 38    
Precipitation  
Precipitation 0.00 in - - ()
Sea Level Pressure  
Sea Level Pressure 30.11 in    
Wind  
Wind Speed 2 mph (SSE)    
Max Wind Speed 17 mph    
Max Gust Speed 25 mph    
Visibility 4 miles    
Events Fog , Rain    
Averages and records for this station are not official NWS values.
T = Trace of Precipitation, MM = Missing Value Source: NWS Daily Summary

Daily Weather History Graph

Daily Weather History Graph

Search for Another Location

Airport or City:

Trip Planner

Search our weather history database for the weather conditions in past years. The results will help you decide how hot, cold, wet, or windy it might be!

Date:

Astronomy

Feb. 20, 2014 Rise Set
Actual Time 7:08 AM EST 6:24 PM EST
Civil Twilight 6:44 AM EST 6:48 PM EST
Nautical Twilight 6:16 AM EST 7:17 PM EST
Astronomical Twilight 5:48 AM EST 7:45 PM EST
Moon 11:52 PM EST (2/20) 10:14 AM EST (2/20)
Length of Visible Light 12h 04m
Length of Day
11h 15m
Waning Gibbous, 71% of the Moon is Illuminated
Feb 20
Waning Gibbous
Feb 22
Last Quarter
Mar 1
New
Mar 8
First Quarter
Mar 16
Full

Hourly Weather History & Observations

Time (EST) Temp. Heat Index Dew Point Humidity Pressure Visibility Wind Dir Wind Speed Gust Speed Precip Events Conditions
12:56 AM 55.4 °F - 55.4 °F 100% 30.10 in 9.0 mi South 2.3 mph - N/A   Clear
12:58 AM 55.8 °F - 55.6 °F 99% 30.10 in 8.0 mi South 2.3 mph - N/A   Clear
1:18 AM 53.6 °F - 53.6 °F 100% 30.10 in 6.0 mi Calm Calm - N/A   Clear
1:22 AM 53.6 °F - 53.6 °F 100% 30.10 in 5.0 mi Calm Calm - N/A   Clear
1:26 AM 53.6 °F - 53.6 °F 100% 30.10 in 1.8 mi Calm Calm - N/A   Clear
1:28 AM 53.6 °F - 53.6 °F 100% 30.10 in 0.8 mi Calm Calm - N/A   Clear
1:30 AM 53.6 °F - 53.6 °F 100% 30.10 in 0.5 mi Calm Calm - N/A Fog Fog
1:32 AM 55.4 °F - 53.6 °F 94% 30.10 in 0.5 mi Calm Calm - N/A Fog Fog
1:34 AM 53.6 °F - 53.6 °F 100% 30.10 in 0.2 mi Calm Calm - N/A Fog Fog
1:38 AM 53.6 °F - 53.6 °F 100% 30.10 in 0.5 mi Calm Calm - N/A Fog Fog
1:40 AM 53.6 °F - 53.6 °F 100% 30.10 in 0.8 mi Calm Calm - N/A   Clear
1:42 AM 53.6 °F - 53.6 °F 100% 30.10 in 1.0 mi Calm Calm - N/A   Clear
1:44 AM 53.6 °F - 53.6 °F 100% 30.10 in 1.5 mi Calm Calm - N/A   Clear
1:48 AM 53.6 °F - 53.6 °F 100% 30.10 in 1.2 mi Calm Calm - N/A   Clear
1:50 AM 53.6 °F - 53.6 °F 100% 30.10 in 0.8 mi Calm Calm - N/A   Clear
1:52 AM 53.6 °F - 53.6 °F 100% 30.11 in 0.5 mi Calm Calm - N/A Fog Fog
1:54 AM 55.4 °F - 55.4 °F 100% 30.10 in 0.5 mi Calm Calm - N/A Fog Fog
1:56 AM 55.4 °F - 55.4 °F 100% 30.10 in 0.2 mi Calm Calm - N/A Fog Fog
1:58 AM 55.4 °F - 55.4 °F 100% 30.10 in 0.2 mi Calm Calm - N/A Fog Fog
2:24 AM 51.8 °F - 51.8 °F 100% 30.10 in 0.5 mi Calm Calm - N/A Fog Fog
2:26 AM 51.8 °F - 51.8 °F 100% 30.10 in 0.2 mi Calm Calm - N/A Fog Fog
2:32 AM 53.6 °F - 53.6 °F 100% 30.10 in 0.5 mi Calm Calm - N/A Fog Fog
2:34 AM 53.6 °F - 53.6 °F 100% 30.10 in 0.5 mi Calm Calm - N/A Fog Fog
2:40 AM 53.6 °F - 53.6 °F 100% 30.10 in 0.5 mi ESE 1.2 mph - N/A Fog Fog
2:42 AM 53.6 °F - 53.6 °F 100% 30.10 in 0.2 mi SE 1.2 mph - N/A Fog Fog
2:50 AM 51.8 °F - 51.8 °F 100% 30.10 in 0.2 mi Calm Calm - N/A Fog Fog
2:52 AM 51.8 °F - 51.8 °F 100% 30.10 in 0.5 mi Calm Calm - N/A Fog Fog
2:54 AM 51.8 °F - 51.8 °F 100% 30.10 in 1.0 mi ESE 1.2 mph - N/A   Clear
2:56 AM 51.8 °F - 51.8 °F 100% 30.10 in 2.0 mi SE 2.3 mph - N/A   Clear
2:58 AM 51.8 °F - 51.8 °F 100% 30.10 in 3.0 mi SE 2.3 mph - N/A   Clear
3:05 AM 51.8 °F - 51.8 °F 100% 30.09 in 0.2 mi SE 2.3 mph - N/A   Clear
3:36 AM 50.0 °F - 50.0 °F 100% 30.09 in 0.5 mi SSE 2.3 mph - N/A Fog Fog
3:40 AM 50.0 °F - 50.0 °F 100% 30.09 in 0.5 mi SSE 2.3 mph - N/A Fog Fog
3:58 AM 49.8 °F - 49.8 °F 100% 30.09 in 0.2 mi Calm Calm - N/A   Clear
4:26 AM 50.0 °F - 50.0 °F 100% 30.09 in 9.0 mi SE 2.3 mph - N/A   Clear
4:58 AM 50.9 °F - 50.9 °F 100% 30.12 in 9.0 mi Calm Calm - N/A   Partly Cloudy
5:22 AM 51.8 °F - 51.8 °F 100% 30.10 in 1.0 mi SSE 3.5 mph - N/A   Clear
5:24 AM 51.8 °F - 51.8 °F 100% 30.10 in 1.0 mi SSE 4.6 mph - N/A   Clear
5:40 AM 50.0 °F - 50.0 °F 100% 30.10 in 6.0 mi SSE 2.3 mph - N/A   Clear
5:42 AM 50.0 °F - 50.0 °F 100% 30.10 in 6.0 mi SSE 2.3 mph - N/A   Clear
5:48 AM 50.0 °F - 50.0 °F 100% 30.10 in 10.0 mi SE 2.3 mph - N/A   Clear
5:56 AM 51.8 °F - 51.8 °F 100% 30.10 in 5.0 mi SE 2.3 mph - N/A   Clear
6:15 AM 51.8 °F - 51.8 °F 100% 30.10 in 4.0 mi SSE 2.3 mph - N/A   Clear
6:21 AM 51.8 °F - 51.8 °F 100% 30.11 in 1.0 mi SSE 2.3 mph - N/A   Partly Cloudy
6:37 AM 50.0 °F - 50.0 °F 100% 30.11 in 0.8 mi East 1.2 mph - N/A   Partly Cloudy
6:41 AM 50.0 °F - 50.0 °F 100% 30.11 in 0.5 mi Calm Calm - N/A Fog Fog
6:45 AM 50.0 °F - 50.0 °F 100% 30.11 in 0.5 mi Calm Calm - N/A Fog Fog
6:47 AM 51.8 °F - 51.8 °F 100% 30.11 in 0.5 mi SE 2.3 mph - N/A Fog Fog
6:53 AM 51.8 °F - 51.8 °F 100% 30.12 in 0.8 mi SSE 2.3 mph - N/A   Mostly Cloudy
6:55 AM 51.8 °F - 51.8 °F 100% 30.12 in 0.8 mi SSE 2.3 mph - N/A   Mostly Cloudy
6:57 AM 51.8 °F - 51.8 °F 100% 30.12 in 0.8 mi SSE 2.3 mph - N/A   Mostly Cloudy
6:58 AM 51.8 °F - 51.8 °F 100% 30.13 in 1.0 mi SSE 1.2 mph - N/A   Mostly Cloudy
7:00 AM 51.8 °F - 51.8 °F 100% 30.12 in 1.0 mi SE 2.3 mph - N/A   Overcast
7:02 AM 51.8 °F - 51.8 °F 100% 30.12 in 0.8 mi ESE 1.2 mph - N/A   Overcast
7:06 AM 53.6 °F - 53.6 °F 100% 30.12 in 0.5 mi SSE 2.3 mph - N/A Fog Fog
7:12 AM 53.6 °F - 53.6 °F 100% 30.12 in 0.8 mi SE 4.6 mph - N/A   Overcast
7:14 AM 53.6 °F - 53.6 °F 100% 30.12 in 0.5 mi SE 4.6 mph - N/A Fog Fog
7:18 AM 55.4 °F - 55.4 °F 100% 30.12 in 0.5 mi SE 4.6 mph - N/A Fog Fog
7:20 AM 55.4 °F - 55.4 °F 100% 30.12 in 0.2 mi SSE 5.8 mph - N/A Fog Fog
7:22 AM 55.4 °F - 55.4 °F 100% 30.12 in 0.2 mi SSE 5.8 mph - N/A Fog Fog
7:23 AM 55.4 °F - 55.4 °F 100% 30.12 in 0.2 mi SE 4.6 mph - N/A Fog , Rain Light Rain
7:55 AM 55.4 °F - 55.4 °F 100% 30.13 in 0.2 mi SE 2.3 mph - N/A Fog Fog
7:58 AM 55.4 °F - 55.4 °F 100% 30.14 in 0.2 mi SE 2.3 mph - 0.00 in Fog Fog
8:08 AM 55.4 °F - 55.4 °F 100% 30.13 in 0.2 mi SE 4.6 mph - N/A Fog Fog
8:10 AM 55.4 °F - 55.4 °F 100% 30.13 in 0.5 mi SE 4.6 mph - N/A Fog Fog
8:16 AM 55.4 °F - 55.4 °F 100% 30.13 in 0.5 mi SE 4.6 mph - N/A Fog Fog
8:24 AM 57.2 °F - 57.2 °F 100% 30.14 in 0.8 mi SSE 4.6 mph - N/A   Mist
8:25 AM 57.2 °F - 57.2 °F 100% 30.14 in 0.8 mi SE 4.6 mph - N/A Rain Light Rain
8:27 AM 57.2 °F - 57.2 °F 100% 30.14 in 1.0 mi SE 4.6 mph - N/A Rain Light Rain
8:29 AM 57.2 °F - 57.2 °F 100% 30.14 in 1.2 mi SE 3.5 mph - N/A Rain Light Rain
8:31 AM 57.2 °F - 57.2 °F 100% 30.14 in 1.8 mi SE 3.5 mph - N/A Rain Light Rain
8:33 AM 57.2 °F - 57.2 °F 100% 30.14 in 2.0 mi SE 3.5 mph - N/A Rain Light Rain
8:35 AM 57.2 °F - 57.2 °F 100% 30.14 in 3.0 mi SE 3.5 mph - N/A Rain Light Rain
8:42 AM 59.0 °F - 59.0 °F 100% 30.14 in 5.0 mi SE 3.5 mph - N/A   Overcast
8:58 AM 59.2 °F - 59.2 °F 100% 30.16 in 9.0 mi SE 2.3 mph - 0.00 in   Mostly Cloudy
9:04 AM 60.8 °F - 60.8 °F 100% 30.15 in 10.0 mi SE 5.8 mph - N/A   Scattered Clouds
9:06 AM 60.8 °F - 60.8 °F 100% 30.15 in 10.0 mi SSE 5.8 mph - N/A   Mostly Cloudy
9:14 AM 60.8 °F - 60.8 °F 100% 30.15 in 10.0 mi SSE 4.6 mph - N/A   Scattered Clouds
9:18 AM 62.6 °F - 62.6 °F 100% 30.14 in 10.0 mi South 5.8 mph - N/A   Partly Cloudy
9:58 AM 66.2 °F - 61.0 °F 83% 30.16 in 10.0 mi SSE 8.1 mph - N/A   Clear
10:58 AM 73.2 °F - 60.4 °F 64% 30.16 in 10.0 mi SE 9.2 mph - N/A   Clear
11:58 AM 77.4 °F - 61.0 °F 57% 30.14 in 10.0 mi SSE 15.0 mph - N/A   Partly Cloudy
12:58 PM 79.9 °F - 59.9 °F 50% 30.11 in 10.0 mi South 12.7 mph 20.7 mph N/A   Clear
1:58 PM 82.0 °F 81.6 °F 56.5 °F 41% 30.08 in 10.0 mi SSE 16.1 mph 23.0 mph N/A   Clear
2:33 PM 82.4 °F 82.0 °F 57.2 °F 42% 30.05 in 10.0 mi South 15.0 mph - N/A   Clear
2:58 PM 81.9 °F 81.6 °F 56.5 °F 42% 30.06 in 10.0 mi South 15.0 mph 24.2 mph N/A   Clear
3:58 PM 82.6 °F 81.7 °F 54.9 °F 38% 30.04 in 10.0 mi South 17.3 mph 25.3 mph N/A   Clear
4:58 PM 81.7 °F 81.0 °F 54.0 °F 38% 30.04 in 10.0 mi South 16.1 mph - N/A   Clear
5:04 PM 80.6 °F 80.3 °F 53.6 °F 39% 30.04 in 10.0 mi SSW 15.0 mph - N/A   Clear
5:58 PM 78.1 °F - 53.8 °F 43% 30.06 in 10.0 mi SW 10.4 mph - N/A   Clear
6:58 PM 73.6 °F - 56.7 °F 55% 30.07 in 10.0 mi SW 6.9 mph - N/A   Clear
7:58 PM 70.0 °F - 59.2 °F 68% 30.08 in 10.0 mi SW 5.8 mph - N/A   Clear
8:58 PM 63.1 °F - 58.6 °F 85% 30.07 in 10.0 mi South 4.6 mph - N/A   Clear
9:58 PM 63.0 °F - 60.4 °F 91% 30.06 in 10.0 mi South 2.3 mph - N/A   Clear
10:58 PM 61.9 °F - 61.0 °F 97% 30.05 in 10.0 mi South 3.5 mph - N/A   Clear
11:58 PM 59.0 °F - 58.6 °F 99% 30.04 in 10.0 mi South 5.8 mph - N/A   Clear